This is the latest recevied weather packets stored in our database for station/object W6ORV. If no packets are shown the sender has not sent any weather packets the latest 10 day(s).
| Time | Temp. | Humidity | Pressure | Rain* | Wind** | Luminosity | Snow |
|---|---|---|---|---|---|---|---|
| 1777768305 | 21.67° C | 57% | 4295.2 hPa | 0 mm | - | 294 W/m² | - |
| 1777767698 | 21.67° C | 56% | 4295.1 hPa | 0 mm | - | 349 W/m² | - |
| 1777767394 | 21.67° C | 56% | 4295 hPa | 0 mm | - | 354 W/m² | - |
| 1777767091 | 21.67° C | 56% | 4294.9 hPa | 0 mm | - | 327 W/m² | - |
| 1777766486 | 22.22° C | 56% | 4294.9 hPa | 0 mm | - | 395 W/m² | - |
| 1777766182 | 22.22° C | 55% | 4294.7 hPa | 0 mm | - | 425 W/m² | - |
| 1777765881 | 21.67° C | 57% | 4294.9 hPa | 0 mm | - | 422 W/m² | - |
| 1777765274 | 22.22° C | 54% | 4294.9 hPa | 0 mm | - | 470 W/m² | - |
| 1777764969 | 22.78° C | 55% | 4295 hPa | 0 mm | - | 481 W/m² | - |
| 1777764667 | 22.78° C | 54% | 4295.2 hPa | 0 mm | - | 499 W/m² | - |
| 1777764060 | 21.67° C | 56% | 4295.1 hPa | 0 mm | - | 535 W/m² | - |
| 1777763455 | 21.67° C | 56% | 4295.3 hPa | 0 mm | - | 557 W/m² | - |
| 1777761637 | 21.11° C | 54% | 4295.7 hPa | 0 mm | - | 598 W/m² | - |
| 1777761334 | 22.22° C | 55% | 4295.9 hPa | 0 mm | - | 623 W/m² | - |
| 1777761033 | 22.78° C | 52% | 4295.9 hPa | 0 mm | - | 651 W/m² | - |
| 1777760729 | 22.22° C | 54% | 4295.9 hPa | 0 mm | - | 649 W/m² | - |
| 1777760426 | 22.78° C | 55% | 4296.1 hPa | 0 mm | - | 658 W/m² | - |
| 1777760121 | 22.78° C | 57% | 4295.9 hPa | 0 mm | - | 642 W/m² | - |
| 1777759819 | 22.78° C | 56% | 4296 hPa | 0 mm | - | 684 W/m² | - |
| 1777759514 | 22.22° C | 57% | 4296.2 hPa | 0 mm | - | 705 W/m² | - |
| 1777758909 | 22.78° C | 58% | 4296.3 hPa | 0 mm | - | 690 W/m² | - |
| 1777757696 | 21.67° C | 61% | 4296.6 hPa | 0 mm | - | 715 W/m² | - |
| 1777757394 | 22.78° C | 59% | 4296.5 hPa | 0 mm | - | 727 W/m² | - |
| 1777757093 | 22.78° C | 57% | 4296.6 hPa | 0 mm | - | 724 W/m² | - |
| 1777756790 | 22.22° C | 59% | 4297 hPa | 0 mm | - | 735 W/m² | - |
* Rain latest hour (hover to see other rain measurements)
** Current wind speed in m/s (hover to see current wind gust speed)